FENGYUN 3A

Last updated on Sun Jun 21 2026 00:02:46 GMT+0000 (Coordinated Universal Time)

1 32958U 08026A 26171.43054098 .00000055 00000+0 46755-4 0 9993 2 32958 98.6883 112.2031 0009703 115.2254 244.9929 14.19571712935868
UTC large
Height (km)
Speed (km/s)
/
Latitude / Longitude
Inclination (degrees)
Orbital Period (minutes)
Azimuth
Elevation
Range (km)
Doppler Factor

Next 0 passes for location: London (51.5072 / 0.1276)

No passes found over London.
FENGYUN 3A